Clinton-Sherman, OK

4:15 AM CDT on August 21, 2017 (GMT -0500)
Clinton-Sherman

Weather History for KCSM - March, 2014

Change the Weather History Date:

Tuesday, March 18, 2014

  Actual Average Record
Temperature  
Mean Temperature 56 °F -  
Max Temperature 70 °F 59 °F 82 °F (2017)
Min Temperature 42 °F 37 °F 36 °F (2016)
Degree Days  
Heating Degree Days 10    
Growing Degree Days 6 (Base 50)    
Moisture  
Dew Point 26 °F    
Average Humidity 34    
Maximum Humidity 58    
Minimum Humidity 15    
Precipitation  
Precipitation 0.00 in - - ()
Sea Level Pressure  
Sea Level Pressure 29.61 in    
Wind  
Wind Speed 25 mph (WNW)    
Max Wind Speed 36 mph    
Max Gust Speed 45 mph    
Visibility 8 miles    
Events      
Averages and records for this station are not official NWS values.
T = Trace of Precipitation, MM = Missing Value Source: NWS Daily Summary

Daily Weather History Graph

Daily Weather History Graph

Search for Another Location

Airport or City:

Trip Planner

Search our weather history database for the weather conditions in past years. The results will help you decide how hot, cold, wet, or windy it might be!

Date:

Astronomy

Mar. 18, 2014 Rise Set
Actual Time 7:43 AM CDT 7:46 PM CDT
Civil Twilight 7:17 AM CDT 8:12 PM CDT
Nautical Twilight 6:48 AM CDT 8:41 PM CDT
Astronomical Twilight 6:18 AM CDT 9:11 PM CDT
Moon 9:59 PM CDT (3/18) 8:38 AM CDT (3/18)
Length of Visible Light 12h 54m
Length of Day
12h 03m
Waning Gibbous, 96% of the Moon is Illuminated
Mar 18
Waning Gibbous
Mar 23
Last Quarter
Mar 30
New
Apr 7
First Quarter
Apr 15
Full

Hourly Weather History & Observations

Time (CDT) Temp. Windchill Dew Point Humidity Pressure Visibility Wind Dir Wind Speed Gust Speed Precip Events Conditions
12:53 AM 48.0 °F - 28.9 °F 48% 29.43 in 10.0 mi South 24.2 mph - N/A   Clear
1:53 AM 48.0 °F - 28.0 °F 46% 29.39 in 10.0 mi South 28.8 mph 36.8 mph N/A   Clear
2:53 AM 46.9 °F - 28.0 °F 48% 29.36 in 10.0 mi South 27.6 mph 36.8 mph N/A   Clear
3:53 AM 48.0 °F - 28.0 °F 46% 29.33 in 10.0 mi South 28.8 mph 36.8 mph N/A   Clear
4:53 AM 46.9 °F - 28.0 °F 48% 29.30 in 10.0 mi South 29.9 mph 35.7 mph N/A   Clear
5:53 AM 46.9 °F - 28.0 °F 48% 29.30 in 10.0 mi South 26.5 mph 34.5 mph N/A   Clear
6:53 AM 45.0 °F 37.1 °F 28.0 °F 52% 29.34 in 10.0 mi SSW 19.6 mph - N/A   Clear
7:53 AM 43.0 °F 37.7 °F 28.0 °F 56% 29.38 in 10.0 mi SW 9.2 mph - N/A   Clear
8:53 AM 46.9 °F - 28.9 °F 50% 29.41 in 10.0 mi WNW 12.7 mph - N/A   Clear
9:53 AM 55.9 °F - 27.0 °F 33% 29.45 in 10.0 mi NW 17.3 mph 24.2 mph N/A   Clear
10:53 AM 59.0 °F - 28.9 °F 32% 29.48 in 10.0 mi NNW 18.4 mph 24.2 mph N/A   Clear
11:53 AM 62.1 °F - 28.0 °F 28% 29.52 in 10.0 mi WNW 16.1 mph 24.2 mph N/A   Clear
12:53 PM 64.9 °F - 27.0 °F 24% 29.54 in 10.0 mi NW 17.3 mph 25.3 mph N/A   Clear
1:53 PM 66.9 °F - 24.1 °F 20% 29.55 in 10.0 mi WNW 19.6 mph 24.2 mph N/A   Clear
2:53 PM 69.1 °F - 25.0 °F 19% 29.55 in 10.0 mi WNW 18.4 mph 24.2 mph N/A   Clear
3:53 PM 69.1 °F - 23.0 °F 18% 29.57 in 10.0 mi WNW 20.7 mph 27.6 mph N/A   Clear
4:53 PM 69.1 °F - 19.9 °F 15% 29.60 in 10.0 mi WNW 26.5 mph 36.8 mph N/A   Clear
5:23 PM 66.2 °F - 21.2 °F 18% 29.66 in 5.0 mi NW 27.6 mph 39.1 mph N/A   Haze
5:48 PM 64.4 °F - 21.2 °F 19% 29.69 in 1.8 mi WNW 32.2 mph 41.4 mph N/A   Haze
5:49 PM 64.0 °F - 21.0 °F 19% 29.67 in 1.8 mi NW 31.1 mph 41.4 mph N/A   Haze
5:55 PM 64.4 °F - 19.4 °F 18% 29.70 in 1.5 mi NW 33.4 mph 42.6 mph N/A   Widespread Dust
6:19 PM 62.6 °F - 24.8 °F 24% 29.72 in 2.5 mi WNW 33.4 mph 42.6 mph N/A   Widespread Dust
6:28 PM 62.6 °F - 24.8 °F 24% 29.73 in 4.0 mi NW 29.9 mph 41.4 mph N/A   Widespread Dust
6:37 PM 62.6 °F - 24.8 °F 24% 29.74 in 6.0 mi NW 27.6 mph 41.4 mph N/A   Widespread Dust
6:53 PM 60.1 °F - 28.0 °F 30% 29.74 in 4.0 mi NW 33.4 mph 41.4 mph N/A   Widespread Dust
7:13 PM 59.0 °F - 24.8 °F 27% 29.78 in 4.0 mi NW 26.5 mph 38.0 mph N/A   Widespread Dust
7:29 PM 57.2 °F - 24.8 °F 29% 29.80 in 5.0 mi NW 29.9 mph 39.1 mph N/A   Widespread Dust
7:53 PM 55.0 °F - 25.0 °F 31% 29.83 in 6.0 mi NW 34.5 mph 43.7 mph N/A   Widespread Dust
8:53 PM 50.0 °F - 25.0 °F 38% 29.90 in 10.0 mi NNW 35.7 mph 44.9 mph N/A   Overcast
9:53 PM 45.0 °F 35.1 °F 28.0 °F 52% 29.96 in 10.0 mi NNW 31.1 mph 43.7 mph N/A   Clear
10:53 PM 42.1 °F 31.5 °F 28.0 °F 58% 30.00 in 10.0 mi NNW 28.8 mph 39.1 mph N/A   Clear
11:53 PM 42.1 °F 32.3 °F 28.0 °F 58% 30.01 in 10.0 mi NNW 24.2 mph 35.7 mph N/A   Clear